Location: Caltech
(34.1382°N, 118.1253°W)
Time: 17:04:04
(UTC-07:00)

Iridium 18 - Visible Passes

Search period start: 28 May 2017 00:00
Search period end: 07 June 2017 00:00
Orbit: 761 x 765 km, 86.4° (Epoch: 27 May)

Date Brightness Start Highest point End Pass type
(mag) Time Alt. Az. Time Alt. Az. Time Alt. Az.
28 May 5.7 21:45:45 10° N 21:50:44 50° E 21:51:57 41° SE visible
28 May 7.8 23:27:54 10° NW 23:30:37 15° W 23:32:09 13° W visible
29 May 6.8 21:08:41 10° NNE 21:12:44 23° E 21:14:31 19° ESE visible
29 May 6.9 22:48:37 10° NNW 22:53:06 31° W 22:54:42 26° WSW visible
30 May 7.5 20:33:43 10° ENE 20:34:34 10° ENE 20:35:25 10° E visible
30 May 5.7 22:10:19 10° N 22:15:26 69° W 22:17:16 39° SSW visible
31 May 5.6 21:32:34 10° N 21:37:37 54° E 21:39:51 31° SSE visible
31 May 8.0 23:15:05 10° NW 23:17:26 13° W 23:19:48 10° WSW visible
01 Jun 6.6 20:55:25 10° NNE 20:59:38 25° E 21:02:26 16° SE visible
01 Jun 7.1 22:35:34 10° NNW 22:39:57 29° W 22:42:38 18° SW visible
02 Jun 5.8 21:57:12 10° N 22:02:16 63° W 22:05:15 25° SSW visible
03 Jun 5.6 21:19:23 10° N 21:24:28 60° E 21:27:52 21° SSE visible
03 Jun 8.1 23:02:20 10° WNW 23:04:15 12° W 23:06:10 10° W visible
04 Jun 6.5 20:42:08 10° NNE 20:46:31 27° E 20:50:32 11° SE visible
04 Jun 7.3 22:22:32 10° NNW 22:26:46 26° W 22:30:44 11° SW visible
05 Jun 6.0 21:44:05 10° N 21:49:07 57° W 21:53:23 14° SSW visible
06 Jun 5.5 21:06:13 10° N 21:11:20 65° E 21:16:05 12° SSE visible
06 Jun 8.3 22:49:46 10° WNW 22:51:03 11° WNW 22:52:20 10° W visible
